Theta_e
291 291 291 291 291 291 291 291 291 291 291 290 290 289 289 289 288 288 288 288 288 288 288 288 288 288 287 287 287 287 287 287 287 287 287 286 286 286 286 286 285 285 285 285 285 285 285 285 285 285 285 285 285 285 285 285 285 284 285 284 284 284 284 283 283 284 285 285 285 285 286 286 287 287 287 287 287 287 287 287 287 287 288 288 288
291 291 291 291 291 291 291 291 291 290 290 290 289 289 289 288 288 288 288 288 288 288 288 288 288 287 287 287 287 287 287 287 287 286 286 286 286 285 285 285 285 285 285 285 285 285 285 285 285 285 285 285 285 285 284 284 284 284 284 284 284 284 283 283 282 282 284 285 285 284 284 284 286 287 287 287 287 287 286 287 287 287 287 287 287
291 291 291 291 291 291 291 291 291 290 290 290 289 289 288 288 288 288 288 288 288 288 288 288 287 287 287 287 287 287 287 286 286 286 285 285 285 285 285 284 284 284 284 285 285 285 285 285 284 284 284 284 284 283 283 283 283 283 283 284 284 284 284 283 282 282 283 284 285 284 283 283 284 285 286 286 287 287 286 286 286 286 286 286 287
291 291 291 291 291 291 291 291 290 290 290 290 289 289 288 288 288 288 288 288 288 287 287 287 287 287 287 287 287 287 286 286 285 285 285 285 284 284 284 284 284 284 284 284 284 284 284 284 284 283 283 283 283 283 283 283 283 283 283 284 284 284 284 283 282 282 281 283 284 284 283 282 282 283 284 284 286 286 286 286 286 286 285 285 285
290 291 291 291 291 291 291 291 290 290 290 289 289 289 289 288 288 288 287 287 287 287 287 287 287 287 287 287 287 286 286 285 285 284 284 284 284 284 284 284 284 284 284 284 284 284 284 283 283 283 283 282 282 283 283 283 283 283 283 283 283 283 283 282 282 281 280 281 283 284 283 282 282 282 283 283 284 285 285 285 285 285 285 285 285
290 290 291 291 290 290 290 290 290 290 290 290 289 289 289 288 288 288 287 287 287 287 287 287 287 287 287 287 286 286 285 285 284 284 284 284 284 284 284 284 284 284 284 284 284 283 283 283 282 282 282 282 282 282 282 282 282 282 282 281 281 281 281 281 280 279 279 280 281 282 282 281 281 281 282 282 282 283 284 284 284 284 284 285 285
290 291 291 290 290 290 290 290 290 290 290 289 289 289 289 289 288 288 287 287 287 287 287 287 287 286 286 286 286 285 285 284 284 283 283 283 284 284 284 284 284 284 284 283 283 283 282 282 282 282 282 282 282 282 282 281 281 281 280 280 280 279 279 279 278 277 277 278 279 279 280 280 280 280 281 281 282 282 282 283 283 284 284 284 285
290 290 291 290 290 290 290 290 290 290 289 289 289 289 289 289 288 288 287 287 287 287 286 286 286 286 286 286 286 285 284 283 283 283 283 283 283 284 284 284 284 283 283 283 282 282 282 282 282 282 282 282 282 281 281 281 280 280 279 279 278 278 277 276 275 275 275 276 277 277 278 278 278 279 279 280 281 281 282 282 283 283 283 283 283
290 291 290 290 290 290 290 290 290 290 289 289 289 289 289 289 288 288 288 287 287 287 286 286 286 286 286 286 285 284 283 283 283 283 283 283 283 283 283 283 283 283 282 282 282 282 281 281 281 282 282 282 281 281 281 280 279 279 278 278 277 276 275 274 274 274 274 275 275 276 276 276 277 277 278 279 279 280 280 281 281 282 282 283 283
290 291 290 290 290 290 290 290 290 289 289 289 289 289 289 289 288 288 288 288 287 287 286 286 286 286 286 285 284 283 283 283 283 283 283 283 283 283 283 283 282 282 282 281 281 281 281 281 281 281 281 281 281 280 280 279 278 278 277 276 275 274 274 273 273 274 274 275 275 275 276 276 276 277 277 278 278 278 279 279 280 280 281 281 282
290 290 290 290 290 290 290 290 289 289 289 289 289 289 289 288 288 288 288 288 287 287 286 286 286 286 285 284 283 283 282 282 283 283 283 283 282 282 282 282 281 281 281 281 281 281 281 281 281 281 280 280 279 279 278 278 277 277 277 276 274 273 273 273 273 273 274 274 274 275 275 275 276 276 276 277 277 277 277 278 278 279 279 279 280
290 290 290 290 290 290 290 290 289 289 289 289 289 289 289 288 288 288 288 288 287 286 286 286 285 285 284 283 282 282 282 282 283 283 282 282 281 281 281 281 281 281 280 280 280 280 280 280 280 279 279 279 278 278 277 277 277 276 276 275 274 273 273 273 273 273 273 274 274 274 274 274 275 275 275 276 276 276 276 277 277 277 278 278 279
290 290 290 291 291 290 290 290 289 289 289 289 289 289 288 288 288 288 288 287 287 286 285 285 285 284 283 282 282 282 282 282 282 282 282 281 281 280 280 280 280 280 280 280 280 280 279 279 279 279 279 278 277 277 276 276 276 276 275 274 273 273 273 273 273 273 274 274 274 274 274 274 274 275 275 275 276 276 276 277 277 277 278 278 279
290 290 290 291 291 290 290 290 289 289 289 289 289 288 288 288 288 287 287 287 286 286 285 285 284 283 282 282 282 282 282 282 282 282 281 281 280 280 280 280 280 280 280 279 279 279 278 278 278 278 278 277 276 276 275 275 275 274 273 272 272 273 273 274 274 274 274 274 274 274 274 274 274 275 275 275 275 276 276 276 277 277 278 278 278
290 290 290 291 291 290 290 290 290 289 289 289 288 288 288 288 287 287 287 286 286 285 285 285 284 282 282 282 282 282 282 282 281 281 280 280 279 279 279 279 279 279 279 279 278 278 277 277 277 277 277 276 276 275 275 274 273 272 272 272 273 273 273 274 275 275 275 275 275 275 275 275 275 275 275 276 276 276 277 277 277 278 278 278 278
290 290 290 290 290 290 290 290 290 289 289 288 288 288 287 287 287 287 286 286 285 285 285 284 283 282 282 282 282 282 282 281 280 280 280 279 279 279 279 279 279 279 279 278 278 277 277 276 276 275 275 276 276 275 274 273 272 272 273 273 274 274 274 274 275 275 275 275 275 275 276 276 276 276 276 277 277 277 277 277 277 277 277 277 277
289 290 290 290 290 290 290 290 289 289 288 288 288 287 287 287 287 286 286 286 285 285 284 283 282 282 282 282 282 282 281 280 280 279 279 279 279 279 279 279 278 278 278 277 277 276 276 275 274 274 274 275 275 275 274 273 273 273 274 274 274 275 275 275 275 276 276 276 276 276 277 277 277 277 277 277 277 277 277 277 277 277 277 277 277
289 290 290 290 290 290 290 289 288 288 288 288 288 287 287 287 287 286 286 285 285 284 283 282 282 281 282 282 281 281 281 280 279 279 279 278 278 278 278 278 277 277 277 276 276 275 275 274 273 274 274 274 273 273 273 273 274 274 274 275 275 275 275 276 276 276 276 276 276 276 276 276 276 277 277 276 276 276 276 276 276 276 276 277 277
289 290 290 290 290 290 289 288 288 288 288 288 287 287 287 287 286 286 286 285 285 284 283 282 281 281 281 281 281 280 280 279 279 278 278 278 278 278 277 277 276 276 276 275 275 274 274 273 273 273 273 272 272 273 273 274 274 275 275 275 276 276 276 276 276 276 276 276 276 276 276 276 276 276 275 275 275 276 276 276 276 276 276 276 276
290 290 290 290 290 289 288 288 288 288 288 288 287 287 287 286 286 286 285 285 284 283 282 281 281 281 281 281 280 280 279 279 278 278 278 278 278 277 276 276 276 275 275 274 273 273 273 272 272 273 272 272 273 273 273 274 275 275 276 276 276 276 276 276 276 276 276 276 276 276 276 275 275 275 275 275 276 276 276 276 276 276 276 276 276
290 291 290 290 289 288 288 288 288 288 288 287 287 287 286 286 286 285 285 285 284 283 282 281 281 281 281 280 280 279 278 278 278 278 278 278 277 276 275 275 275 274 273 272 271 271 272 272 272 272 272 272 273 273 274 275 276 276 276 276 276 276 276 276 276 275 275 275 275 275 275 275 275 275 275 276 276 276 276 275 275 275 275 275 275
291 291 290 289 288 288 288 288 288 288 288 287 287 286 286 285 285 285 285 285 283 282 281 281 281 281 280 279 279 278 278 278 278 278 278 278 277 276 275 275 274 272 271 271 271 271 272 272 272 272 272 273 273 274 275 276 276 276 276 276 276 276 275 275 275 275 275 275 275 275 275 275 275 275 275 276 276 276 276 276 275 275 274 275 274
291 290 289 288 288 288 288 288 288 288 287 287 286 286 285 285 285 285 285 284 283 282 281 281 281 280 279 278 278 277 277 277 277 278 278 277 276 276 275 274 273 271 271 271 271 271 272 272 272 272 273 273 274 275 275 275 275 275 275 275 275 274 274 274 274 274 274 274 275 275 275 275 275 275 276 276 276 276 277 277 276 275 275 276 276
290 289 289 288 288 288 288 288 288 287 287 286 286 285 285 285 285 285 284 283 282 281 280 280 280 279 278 278 277 277 277 277 277 277 277 277 276 275 275 274 272 271 271 272 272 272 272 272 273 273 273 274 274 274 274 274 274 274 274 274 274 274 274 274 274 274 274 274 274 275 275 275 275 275 276 276 276 276 277 277 277 276 276 276 276
290 289 289 288 288 288 288 288 287 287 286 286 285 285 285 284 284 284 283 282 281 280 280 280 279 278 278 277 277 276 276 277 277 277 277 276 275 275 274 273 272 271 272 272 272 272 272 272 273 273 273 273 273 273 274 274 274 274 274 274 274 274 274 274 274 274 274 274 274 274 275 275 275 275 275 276 276 276 277 277 276 277 276 276 276
290 289 288 288 288 288 288 287 287 287 286 286 285 285 284 284 284 284 283 281 280 280 280 279 278 278 277 277 276 276 276 276 277 277 276 275 275 274 273 272 271 272 272 272 272 272 272 272 272 272 273 273 273 273 274 274 274 274 273 273 273 273 273 273 273 273 273 273 273 274 274 274 275 275 275 275 276 276 276 276 276 276 276 275 274
289 289 288 288 288 288 287 287 287 286 286 285 285 284 284 284 284 283 282 281 280 279 279 278 278 277 277 276 276 276 276 276 276 276 275 275 274 273 272 272 271 271 271 271 272 272 272 272 272 272 273 273 273 273 273 273 273 273 273 273 272 272 272 272 272 272 272 272 273 273 273 274 274 275 275 275 275 275 275 275 275 275 275 274 274
289 289 288 288 288 287 287 287 286 286 286 285 284 284 284 284 283 282 281 280 279 279 278 278 277 276 276 276 276 276 276 276 276 275 275 274 272 271 271 271 271 271 271 271 272 272 272 272 272 273 273 273 273 273 273 273 273 273 272 272 272 272 271 271 271 271 271 272 272 272 273 273 274 274 274 274 275 275 275 275 274 274 274 274 274
289 289 288 288 287 287 287 287 286 286 285 285 284 284 284 283 283 282 280 279 279 278 278 277 276 276 276 276 276 276 276 276 275 274 273 272 270 271 271 271 270 271 271 271 272 272 272 272 272 272 272 273 272 272 272 272 272 272 272 271 271 271 271 271 271 271 271 271 271 272 272 273 273 274 274 274 275 275 275 274 273 273 273 273 273
289 289 288 288 287 287 287 286 286 285 285 284 284 283 283 283 282 281 280 279 278 277 277 276 276 275 275 275 275 275 275 275 274 274 273 272 271 271 270 270 270 271 272 272 271 271 272 272 272 272 272 272 271 271 271 271 271 271 271 271 270 270 270 270 270 271 271 271 271 272 272 273 273 273 273 273 273 274 273 273 272 272 273 273 273
289 288 288 287 287 287 287 286 286 285 284 284 284 283 283 282 281 280 279 278 277 277 276 276 275 275 274 274 274 274 274 274 273 273 273 272 270 270 270 271 271 272 271 271 271 271 271 272 272 272 272 271 271 270 270 270 270 270 270 270 270 270 270 270 270 270 271 271 271 272 272 272 271 271 271 271 271 271 272 272 272 273 273 273 273
289 288 288 287 287 287 286 286 285 284 284 284 283 283 282 281 280 279 279 278 277 276 275 275 274 274 274 274 274 274 274 273 273 273 272 270 270 270 271 272 272 271 271 271 271 271 271 272 272 272 272 271 271 270 270 270 270 270 270 270 270 270 270 270 270 270 271 271 271 271 270 270 270 269 269 270 270 271 272 273 273 273 273 274 274
288 288 287 287 287 286 286 285 284 284 283 283 283 283 282 280 279 278 277 277 276 275 275 274 274 274 274 274 274 274 274 273 273 272 271 270 271 271 272 272 272 271 271 271 271 271 272 272 272 272 272 271 271 271 270 270 270 269 269 270 270 270 270 270 270 270 270 270 269 269 270 270 269 269 269 270 270 271 272 273 273 273 273 274 274
288 287 287 287 286 286 285 284 284 283 283 283 283 282 280 279 278 277 276 276 275 275 275 274 274 274 274 274 273 273 273 273 273 272 272 272 272 272 272 272 271 271 271 271 271 271 272 272 272 272 271 271 271 271 270 270 269 269 270 270 270 270 270 270 269 269 269 269 269 269 270 270 269 269 270 270 271 271 272 273 273 273 273 274 275
287 287 287 286 285 285 284 284 283 283 283 283 282 280 279 278 277 276 276 275 275 275 274 274 274 274 274 274 273 273 272 272 272 272 272 272 272 272 272 272 271 271 271 271 271 271 272 272 272 272 271 271 271 271 271 270 269 269 270 270 270 270 269 269 269 268 268 268 269 269 270 270 270 270 270 271 271 272 272 272 272 272 273 274 275
286 286 286 285 285 284 284 283 283 283 283 282 280 279 278 277 276 276 275 275 275 275 274 274 273 273 273 273 273 272 272 272 272 272 272 272 272 272 272 271 271 271 271 271 271 271 271 272 271 271 271 271 271 271 271 270 270 270 269 269 269 269 269 268 268 268 268 268 269 269 269 270 270 270 270 271 271 272 272 272 272 272 273 274 275
286 285 285 284 284 283 283 283 283 282 282 280 279 277 277 276 276 275 275 274 274 274 274 273 273 273 273 273 273 272 272 272 271 271 271 271 272 272 271 271 271 271 271 271 271 271 271 271 271 271 271 271 271 271 270 270 270 270 270 269 270 269 268 268 268 268 268 268 269 269 269 270 270 270 270 271 271 272 272 271 272 272 273 274 274
284 284 283 283 282 282 282 282 282 282 280 279 277 276 276 276 275 275 274 274 274 274 274 273 273 273 272 272 272 272 272 271 271 271 271 271 271 271 271 271 271 271 271 271 271 270 270 270 270 270 270 270 270 270 270 270 270 270 270 270 271 270 269 268 268 268 268 268 269 269 269 270 270 270 270 271 271 271 272 272 272 273 274 274 274
282 282 282 282 281 282 282 282 281 280 279 277 276 276 275 275 275 274 274 274 273 273 273 273 273 273 272 272 272 272 271 271 271 270 270 271 271 270 270 270 270 270 270 270 270 270 270 270 270 270 270 270 270 270 270 270 270 270 270 270 271 271 269 268 268 268 268 268 269 269 269 270 270 270 270 271 271 271 271 272 272 272 273 274 274
281 281 281 281 281 281 281 281 279 278 277 276 276 275 275 274 274 273 273 273 273 273 273 273 273 272 272 272 271 271 271 271 271 271 271 271 270 270 270 270 270 270 270 270 270 270 270 270 270 270 270 270 270 270 270 270 270 270 270 270 270 270 269 268 267 267 268 268 268 269 269 269 270 271 271 271 271 271 271 271 272 272 273 273 274
280 281 281 281 281 281 280 279 278 277 276 276 275 275 274 273 273 273 273 273 272 272 273 273 272 272 272 271 271 271 271 271 271 271 271 270 270 270 270 269 269 269 270 270 270 270 270 270 270 270 270 270 270 270 270 270 270 270 270 270 270 270 269 268 267 267 267 268 268 269 269 269 270 270 271 271 271 271 271 271 272 272 273 273 274
280 280 280 280 280 279 278 277 276 275 275 275 275 274 273 272 272 272 272 272 272 272 272 272 272 272 271 271 271 270 270 270 270 270 270 270 270 270 269 269 269 269 269 269 270 270 270 270 270 270 270 270 270 270 270 270 270 270 270 270 270 269 269 268 268 267 268 268 268 268 269 269 269 270 270 271 271 271 271 271 272 272 273 273 273
279 279 279 279 278 277 276 276 275 275 274 274 274 273 272 272 272 272 272 272 272 272 272 272 272 271 271 271 270 270 270 269 269 269 269 270 270 269 269 269 269 269 269 269 269 269 270 270 270 270 270 270 270 270 270 270 270 270 269 269 269 269 268 268 267 267 268 268 268 268 269 269 269 269 270 271 271 271 271 271 271 272 272 272 272
278 278 278 277 276 276 275 275 274 274 273 273 272 272 272 272 272 271 271 271 271 271 272 272 271 271 271 271 270 270 269 269 269 269 269 269 269 269 269 269 269 269 269 269 269 269 269 270 270 270 270 270 270 270 269 269 269 269 269 269 269 269 268 268 267 267 268 268 268 268 268 269 269 269 269 270 271 271 271 271 271 271 272 271 271
277 277 276 276 275 275 275 274 274 273 272 272 272 271 271 271 271 271 271 271 271 271 271 271 271 271 271 270 270 270 269 269 269 269 269 269 269 269 269 269 269 269 269 269 269 269 269 269 270 270 270 270 270 269 269 269 269 269 269 269 269 269 268 268 267 267 267 268 268 268 268 269 269 269 269 270 270 271 271 271 271 271 271 271 271
276 275 275 275 274 274 273 273 273 272 271 271 271 271 270 271 271 270 270 270 271 271 271 271 271 271 271 270 270 270 269 269 269 269 269 269 269 269 269 269 269 269 269 269 269 269 269 269 269 270 270 270 270 269 269 269 269 269 268 269 269 269 268 268 267 267 267 268 268 268 268 269 269 269 269 269 270 270 271 271 271 271 271 271 271
274 274 274 273 273 273 273 272 271 271 270 270 270 270 270 270 270 270 270 270 270 270 270 270 270 270 270 270 270 270 269 269 269 269 269 269 269 269 269 269 269 269 269 269 269 269 269 269 269 269 269 269 269 269 269 269 269 268 268 268 268 268 268 268 268 268 268 268 268 268 268 269 269 268 268 269 269 270 270 271 271 271 271 271 271
274 273 273 273 272 272 272 271 270 270 269 269 269 269 269 269 269 269 270 270 270 270 270 270 270 270 270 270 270 269 269 269 269 269 269 269 269 269 269 269 269 269 269 269 269 269 269 269 269 269 269 269 269 269 269 269 268 268 268 268 268 268 268 268 268 268 268 268 268 268 268 268 268 268 268 268 269 269 270 270 270 271 271 271 271
273 272 272 272 271 271 271 270 269 269 268 268 268 268 268 269 269 269 269 269 269 269 269 269 269 269 269 269 269 269 269 269 269 269 269 269 269 269 269 269 269 269 269 269 269 268 268 268 268 268 268 268 268 268 268 268 268 268 268 268 268 268 268 268 268 268 268 268 268 268 268 268 268 268 268 268 268 269 269 270 270 270 270 271 271
272 272 271 271 270 270 269 269 268 268 268 268 268 268 268 268 268 268 268 269 269 269 269 269 269 269 269 269 269 269 269 268 268 268 268 268 268 269 269 269 269 269 268 268 268 268 268 268 268 268 268 268 268 268 268 268 268 268 268 268 268 268 268 268 268 268 268 268 268 267 268 268 268 268 268 268 268 268 269 269 269 270 270 270 270
271 271 270 270 270 269 269 268 268 268 267 267 267 267 268 268 268 268 268 268 268 268 268 268 268 268 268 268 268 268 268 268 268 268 268 268 268 268 268 268 268 268 268 268 268 268 268 268 268 268 268 268 268 268 268 268 268 267 267 267 268 268 268 268 268 268 268 268 268 268 268 268 268 268 268 268 268 268 268 268 269 269 269 270 270
Wind_Speed
16 15 14 12 11 9 7 5 2 1 3 5 7 9 11 12 13 13 14 14 15 15 15 15 15 15 16 16 17 18 19 20 21 22 23 24 25 25 26 27 27 28 28 29 30 31 33 34 35 37 38 39 40 41 42 43 43 44 44 44 44 43 41 38 39 49 55 52 52 55 55 55 57 57 57 59 59 57 57 56 54 54 55 55 56
17 15 14 13 11 9 7 5 3 3 4 7 9 11 13 14 15 15 16 16 17 17 17 18 18 18 18 19 19 20 21 21 22 23 24 25 26 26 27 28 28 29 30 31 31 33 34 35 37 39 40 42 43 44 45 45 44 45 45 44 45 45 42 40 40 45 53 56 54 55 53 51 53 57 56 57 59 59 60 61 59 57 56 55 56
17 16 15 13 11 9 8 5 3 4 6 8 11 12 14 15 16 17 18 18 19 19 19 20 20 20 20 21 21 21 22 23 23 24 25 26 27 27 28 29 30 31 32 33 34 35 36 38 39 41 42 43 43 44 44 44 44 44 44 44 44 45 44 42 41 43 50 56 55 54 51 44 44 52 56 56 58 60 59 60 60 58 56 54 55
19 17 15 14 12 10 8 5 4 5 7 9 11 13 15 16 17 18 19 20 20 21 21 21 22 22 22 22 22 23 23 24 24 25 26 27 29 29 30 31 32 33 34 35 37 39 40 42 43 43 44 43 43 43 42 42 42 42 43 43 43 44 44 43 43 42 45 52 56 54 51 44 38 41 46 48 51 56 57 56 56 55 54 52 51
19 18 16 15 13 10 8 6 5 6 7 9 11 13 15 17 18 20 21 21 22 22 23 23 23 23 23 23 23 23 24 24 26 27 28 29 30 31 32 33 34 36 37 39 40 42 43 44 45 44 44 44 43 42 42 41 42 42 42 42 42 42 43 42 42 40 40 46 52 53 51 47 37 30 29 31 35 44 51 52 52 53 54 53 50
21 19 18 16 14 11 9 7 7 7 7 9 11 14 16 18 19 21 22 23 24 24 24 25 25 24 24 23 24 24 24 25 27 28 29 31 32 33 34 35 37 38 40 41 43 44 45 45 45 44 43 44 43 42 42 42 42 42 41 40 40 40 40 40 39 38 38 40 46 50 49 44 35 26 23 23 25 31 39 44 47 47 47 48 48
22 21 19 17 15 12 10 9 8 7 8 9 12 15 17 19 21 22 24 24 25 26 26 26 26 25 25 24 25 25 26 27 28 29 31 32 33 35 36 37 39 41 42 44 44 45 45 44 44 43 42 42 42 42 42 41 41 40 39 38 38 36 36 36 34 34 34 35 39 43 43 40 33 26 23 22 23 24 26 30 35 38 37 37 39
24 22 20 18 16 14 12 11 9 9 9 10 13 16 18 20 22 24 25 26 27 27 28 27 27 26 26 25 26 26 26 27 29 30 31 33 34 36 38 39 41 43 44 45 45 44 44 43 43 42 42 42 42 41 40 40 39 39 37 35 34 33 32 31 31 31 29 31 35 37 37 37 32 26 22 21 22 22 21 22 26 30 32 34 35
25 23 21 19 17 15 13 12 11 10 10 12 14 17 19 21 23 24 25 27 28 29 29 28 27 26 26 26 26 26 27 28 29 31 32 34 35 37 39 41 43 44 44 44 44 43 43 43 42 42 42 41 41 40 39 38 36 36 35 32 31 30 29 28 29 28 26 29 32 32 31 33 29 25 24 22 21 23 23 24 26 28 29 31 30
27 24 22 20 18 16 15 13 12 12 12 14 16 18 20 22 23 25 26 28 30 30 30 28 27 26 26 26 26 26 27 28 29 31 33 35 37 39 41 42 43 43 43 43 43 42 42 42 41 42 42 41 40 39 37 35 33 32 31 28 27 26 26 26 25 24 24 26 28 27 27 29 27 24 24 23 22 24 25 24 26 29 30 32 32
28 26 23 21 19 18 16 15 14 13 13 15 18 20 22 23 24 25 27 29 31 31 30 28 26 26 26 26 26 26 27 28 30 32 34 36 38 39 41 42 42 42 42 42 42 42 41 41 41 42 41 40 38 36 34 32 30 28 27 24 23 22 22 24 24 24 24 26 28 27 27 29 28 25 26 25 23 25 26 25 26 29 30 31 34
30 27 24 22 20 19 18 17 16 15 15 18 20 22 23 24 25 26 28 30 31 32 30 27 26 26 26 26 26 27 28 30 31 33 35 37 38 39 40 41 41 41 41 41 41 41 41 41 41 41 40 38 36 33 31 29 27 25 24 22 21 19 18 20 23 24 25 27 29 28 27 29 29 26 25 25 25 25 25 25 25 27 29 29 30
31 28 25 23 22 21 20 19 17 16 17 20 23 24 25 25 26 27 29 30 32 31 29 27 26 26 26 26 27 28 29 31 33 35 36 37 37 37 38 39 39 40 39 39 40 40 40 40 40 40 38 36 33 30 28 27 25 24 24 22 20 19 19 19 21 23 25 27 30 30 28 27 28 27 24 24 26 27 27 27 26 27 29 30 29
32 28 26 24 23 22 22 20 18 18 20 23 24 25 26 26 27 28 30 31 32 31 29 27 27 26 26 27 28 29 31 33 35 36 37 37 36 36 37 38 38 39 38 38 39 39 38 39 39 39 37 34 30 27 25 24 23 23 23 23 23 23 23 23 22 23 24 25 27 28 27 26 26 26 25 24 27 30 30 31 31 31 33 34 33
32 29 27 25 25 24 23 21 20 21 23 24 26 26 26 26 27 28 30 32 32 30 29 28 27 27 27 28 30 31 33 34 36 37 37 36 36 36 37 37 37 38 38 37 37 37 37 37 37 36 35 33 28 24 22 21 22 24 25 25 27 28 28 26 25 25 26 27 28 29 28 27 28 28 28 28 30 32 32 33 33 33 35 36 34
33 29 27 27 26 24 22 21 22 23 24 26 26 26 26 26 27 29 31 32 31 30 29 28 27 27 28 29 31 33 34 35 36 36 36 35 35 36 37 37 37 38 38 37 36 36 36 35 34 34 33 32 28 22 19 19 22 26 29 30 32 32 31 29 28 28 28 30 31 31 30 30 30 31 31 31 32 33 34 35 34 33 34 34 32
34 30 29 28 26 24 22 22 23 24 25 26 27 26 26 27 28 30 32 32 31 29 29 28 27 28 29 30 33 35 36 36 36 36 35 34 34 35 36 36 37 37 37 36 35 35 34 32 31 31 31 30 27 21 18 20 25 29 31 32 32 32 32 32 32 33 33 32 31 30 30 31 30 31 30 30 31 32 33 34 32 31 31 32 33
34 32 30 29 25 23 22 22 23 24 25 27 27 27 27 27 29 31 31 31 30 29 28 28 28 29 30 32 34 36 37 36 35 35 34 32 32 34 35 36 36 36 36 35 33 33 32 31 29 29 29 28 26 23 21 24 28 30 31 31 32 33 35 36 37 37 35 33 32 30 30 31 30 31 32 33 33 32 31 32 31 30 30 31 32
34 32 30 27 24 22 22 22 22 24 26 28 28 28 28 28 29 30 30 31 30 29 28 28 29 30 31 33 35 36 37 37 35 34 32 31 31 32 33 34 34 34 33 32 31 31 30 30 29 27 27 26 25 24 24 26 28 28 29 31 34 37 38 37 36 35 34 34 34 31 29 28 28 31 34 35 34 30 29 29 28 28 30 30 29
31 31 29 25 23 22 22 22 23 25 27 28 28 28 28 29 29 30 30 31 30 29 28 29 30 32 33 34 35 36 36 36 34 32 31 29 29 30 31 31 31 31 30 30 31 32 31 30 29 27 25 25 25 25 25 24 25 26 29 33 36 36 35 33 32 32 33 32 31 28 26 28 32 34 34 33 31 30 28 27 25 24 26 27 26
30 30 27 25 23 22 22 22 24 26 28 29 29 29 29 29 30 30 30 30 30 29 29 30 32 34 34 35 35 35 34 34 33 31 29 28 28 28 28 27 26 26 27 27 28 29 29 28 27 26 25 25 25 26 27 26 27 29 32 33 33 32 31 32 32 33 33 32 30 30 31 35 38 38 36 35 34 33 32 29 26 24 24 26 27
29 28 26 24 23 22 23 24 25 27 29 29 29 29 29 29 30 30 30 30 30 29 29 31 33 35 36 35 34 33 32 31 30 29 27 27 27 26 24 23 21 20 23 24 25 27 26 25 25 25 25 27 28 30 31 30 29 30 30 30 30 31 32 35 36 36 36 35 35 36 37 38 39 38 36 36 35 34 33 32 28 27 26 28 29
28 27 26 25 24 24 24 25 27 28 29 29 29 29 29 29 29 29 29 30 30 30 30 32 34 36 36 35 33 31 30 28 27 26 26 26 26 23 21 20 17 17 20 23 24 25 25 24 26 27 28 29 30 31 32 31 31 31 31 32 33 35 36 37 37 36 35 35 35 35 36 36 36 36 35 34 34 34 34 33 32 30 30 30 30
29 29 27 26 25 25 26 27 28 29 29 30 30 29 29 29 29 29 29 30 30 30 32 33 35 36 36 35 32 30 28 26 25 24 25 25 23 22 20 17 16 16 19 22 23 24 25 26 27 28 28 29 30 31 33 33 34 35 36 36 36 36 36 35 35 33 33 33 33 33 33 33 33 33 33 33 34 34 34 34 34 33 32 32 33
31 31 29 28 27 27 27 27 28 29 29 30 30 29 29 29 28 28 29 29 30 31 33 34 35 36 36 34 32 29 26 24 23 23 23 23 22 20 18 16 16 17 19 21 22 23 24 26 26 27 28 30 32 33 32 32 32 33 33 33 33 32 32 32 31 31 31 30 30 31 31 31 32 32 33 33 33 34 34 35 35 34 34 34 35
34 32 31 29 28 28 28 28 29 29 30 30 30 29 29 29 29 29 28 29 30 32 33 34 35 35 35 33 31 28 25 23 22 21 21 21 21 19 18 18 19 17 17 20 22 23 25 26 26 27 28 28 29 29 28 27 27 28 28 28 28 27 27 27 26 27 27 27 28 29 30 30 31 32 32 32 33 33 34 34 34 35 34 34 35
35 34 33 31 30 29 28 28 29 29 30 30 29 29 29 29 29 28 28 29 30 32 33 34 34 33 33 32 30 26 24 22 21 20 20 21 20 20 20 21 20 19 21 25 26 26 26 26 26 26 26 25 24 24 23 23 23 23 23 23 23 22 22 22 22 22 23 24 25 27 27 28 29 30 30 30 31 31 31 31 32 33 33 32 33
36 36 34 32 31 30 29 29 29 30 30 30 29 29 28 29 29 28 28 29 31 32 34 33 32 31 31 30 28 25 22 19 19 19 19 18 18 19 20 20 20 21 25 28 27 26 25 25 25 25 25 23 22 21 20 19 19 19 19 19 19 20 20 20 20 20 21 22 23 24 25 25 26 26 26 27 28 28 27 27 28 29 30 30 31
38 38 36 34 32 31 30 29 29 29 30 29 29 28 28 28 29 29 29 29 31 32 33 32 30 29 29 28 26 24 21 18 17 18 18 15 14 17 19 18 19 22 25 27 25 24 24 24 25 24 23 21 20 19 19 19 19 19 18 18 18 19 19 19 20 20 20 21 22 23 24 24 24 24 24 25 25 24 24 25 28 29 29 29 31
40 40 38 35 33 31 30 30 30 30 30 29 28 28 27 27 28 29 29 30 30 31 31 31 29 28 28 27 24 22 21 19 17 17 16 13 13 16 17 18 20 22 23 23 23 22 22 22 22 21 19 19 19 19 20 20 21 21 21 20 19 19 18 18 19 20 20 20 21 21 21 22 22 23 23 25 26 26 26 27 28 29 29 30 32
40 41 39 36 34 32 31 30 30 30 29 29 28 27 27 27 27 29 30 30 29 29 29 29 27 25 25 25 22 19 18 18 17 16 15 14 14 16 18 19 20 20 21 21 21 21 20 20 18 18 18 18 19 19 20 21 21 22 22 21 19 18 19 20 20 20 20 20 20 21 21 23 24 24 25 26 27 27 28 28 27 26 27 29 31
40 40 38 36 34 33 32 31 30 29 29 28 28 27 26 26 26 28 30 29 28 27 27 27 25 23 22 22 20 17 16 16 16 15 14 14 16 18 18 17 17 18 19 19 19 19 18 17 17 17 18 19 19 20 20 21 21 21 21 20 18 18 19 21 21 22 23 24 24 25 25 25 25 25 25 26 26 27 28 28 27 25 25 27 29
41 39 39 37 36 35 33 31 30 29 28 28 27 27 27 26 26 26 27 26 25 25 26 25 22 21 20 19 18 16 15 15 15 15 14 15 17 18 16 14 15 16 17 17 17 17 16 16 16 18 18 19 19 20 20 21 21 20 20 19 19 19 21 23 24 26 28 28 27 27 26 25 25 25 26 26 27 28 28 28 27 25 24 25 27
41 40 39 38 37 35 33 31 29 28 28 28 27 27 27 27 26 25 23 22 21 22 24 24 21 18 18 18 16 15 14 14 14 14 16 17 17 15 13 13 13 14 15 15 15 15 15 15 16 17 17 18 19 19 20 20 20 19 19 19 20 22 24 26 29 30 30 30 29 28 28 27 26 26 27 27 27 28 28 27 26 25 24 25 26
42 41 41 40 38 35 32 30 29 28 27 27 27 27 27 27 26 24 22 19 17 17 20 22 21 17 15 15 15 14 14 13 13 14 16 16 15 13 12 12 12 12 13 13 13 14 14 15 15 15 16 17 18 19 19 19 19 19 19 20 21 22 25 28 29 29 29 30 31 31 30 29 28 27 27 27 27 27 27 27 26 25 25 26 27
41 42 43 41 38 33 31 30 29 27 27 27 27 27 26 25 24 22 20 18 15 14 16 19 19 17 14 13 14 14 14 13 13 14 14 15 14 12 11 11 11 11 11 11 11 11 12 13 14 15 16 16 17 19 19 19 19 18 18 19 20 22 25 25 24 25 28 30 31 31 31 31 31 30 28 28 27 26 26 27 26 26 26 26 26
42 43 43 39 34 31 30 29 28 27 27 27 27 26 25 23 22 20 17 15 14 14 14 16 17 16 15 13 13 14 14 13 12 13 13 14 13 11 11 11 11 11 11 10 10 10 11 12 13 14 15 16 17 18 19 19 19 19 19 19 20 21 22 20 20 23 29 32 32 32 33 32 31 31 29 29 28 27 27 27 27 27 27 26 25
41 41 39 34 31 29 29 29 28 27 27 27 26 24 23 22 20 18 16 14 14 14 14 15 15 15 15 14 13 13 13 12 12 12 13 13 11 10 10 11 11 12 11 11 11 11 12 13 13 14 15 16 17 18 19 19 19 20 20 21 21 21 19 17 20 25 30 33 33 33 33 32 31 31 30 29 28 28 28 28 27 27 28 27 25
39 37 35 32 30 29 29 28 27 27 26 26 24 23 22 21 18 16 15 15 15 15 14 14 15 15 15 15 14 13 13 12 12 11 12 11 11 10 10 11 11 12 12 11 12 12 12 13 14 14 15 16 17 18 18 19 19 20 20 21 23 22 19 18 20 25 30 33 34 34 34 33 32 31 30 29 29 28 28 28 27 26 27 27 26
36 34 32 30 29 28 27 27 27 27 26 25 24 22 21 19 17 16 16 15 15 15 14 14 15 16 16 16 15 14 13 12 12 12 11 11 10 11 11 11 11 12 12 12 12 12 13 14 14 15 15 16 17 18 18 19 19 20 20 21 22 22 20 18 19 24 29 32 34 34 34 34 33 32 31 30 28 28 27 27 26 25 25 25 25
32 31 30 29 28 27 27 26 26 26 25 24 23 22 20 18 17 16 16 15 15 15 14 14 15 16 17 17 16 16 15 13 12 12 12 11 11 11 12 12 13 13 13 13 13 14 14 14 15 15 16 17 17 18 18 19 19 19 20 20 21 21 20 19 20 23 28 31 33 35 36 35 34 33 32 30 28 28 27 26 25 25 24 23 22
29 29 28 28 27 27 26 25 25 26 25 24 22 21 19 18 17 17 16 16 15 15 14 14 15 17 18 18 17 17 16 14 13 12 12 12 12 12 13 14 14 14 15 15 15 15 15 15 16 16 17 17 18 18 19 19 20 20 20 20 20 20 20 20 20 22 26 29 32 35 36 36 35 34 32 31 29 28 27 26 25 25 23 21 21
28 28 27 27 26 25 24 25 25 25 24 23 21 20 20 19 18 17 16 16 16 15 15 15 15 17 18 19 19 18 17 16 14 14 14 14 14 14 14 15 15 15 16 16 16 17 17 17 17 17 17 18 19 19 19 20 20 20 21 21 20 19 18 19 19 21 25 29 31 34 35 36 36 34 33 31 30 29 27 26 25 24 22 20 21
27 27 26 26 25 25 25 25 25 24 23 22 22 21 20 19 18 18 17 16 16 16 15 15 16 17 18 19 19 19 18 17 17 16 16 16 16 16 16 16 16 16 16 17 18 19 19 19 19 18 18 18 19 20 20 21 21 21 21 22 21 19 17 17 18 19 22 26 30 33 35 36 36 35 33 31 30 29 27 25 24 24 22 20 21
26 25 25 25 25 24 24 24 24 23 23 23 22 21 20 19 19 18 17 17 16 16 16 16 17 17 18 19 20 20 20 19 19 18 18 18 18 18 18 18 18 17 18 18 19 20 21 21 21 21 20 19 19 20 21 21 21 21 21 22 22 20 17 16 16 17 19 22 26 30 33 36 37 35 33 31 29 28 27 25 24 23 23 22 22
25 24 24 24 24 24 23 23 23 23 23 23 21 20 20 20 19 18 18 17 17 17 17 17 17 18 18 18 20 20 21 21 20 19 19 19 20 20 20 20 20 19 19 20 20 21 22 23 24 24 23 22 21 21 21 21 21 21 21 21 21 20 18 17 17 17 18 20 24 27 31 34 36 35 33 31 29 27 26 25 24 23 22 22 22
23 23 23 23 23 23 23 23 23 23 23 22 21 20 20 20 19 19 18 18 17 17 17 17 18 18 18 19 19 20 21 21 21 21 20 21 21 22 22 22 22 22 22 22 22 23 24 25 25 26 26 25 25 24 22 22 22 22 22 21 21 20 19 18 17 16 17 19 22 25 28 32 34 35 33 31 28 26 25 25 25 23 23 22 22
22 22 23 23 23 23 23 23 23 23 22 21 21 21 21 20 20 19 19 19 18 18 18 18 18 18 19 19 20 20 21 21 21 21 21 21 22 23 23 24 24 24 24 23 24 24 25 26 26 26 27 27 26 26 25 23 22 22 22 22 21 20 19 18 16 14 14 17 19 22 26 29 31 32 33 31 28 25 24 24 24 24 23 22 21
22 23 23 23 23 22 22 22 22 22 22 21 21 21 21 21 20 20 20 19 19 19 19 19 19 19 20 20 21 21 21 22 22 21 21 21 22 23 24 24 24 25 25 25 24 24 25 25 25 25 26 26 26 26 25 24 23 22 22 22 22 20 19 17 14 11 12 15 18 21 24 26 28 30 31 30 27 24 22 22 22 22 22 22 21
22 22 22 22 22 21 22 22 22 22 22 22 22 21 21 21 21 20 20 20 20 20 19 20 20 20 21 21 22 22 23 23 23 22 22 22 23 23 24 24 24 24 25 25 24 24 23 23 23 23 24 24 25 25 25 24 23 22 22 22 22 21 19 18 15 11 10 14 17 20 21 22 24 27 29 28 25 23 22 21 20 20 20 20 20
21 21 21 21 21 21 21 22 22 22 22 22 22 22 22 21 21 21 21 20 20 20 20 20 21 21 22 22 22 23 23 24 24 23 23 22 23 23 24 24 24 24 24 24 23 23 22 22 22 23 23 24 24 24 24 23 23 22 22 22 22 22 21 19 16 12 11 12 16 18 19 19 21 24 25 25 24 22 21 20 20 19 19 18 18
Wind_Direction
194 192 190 187 188 188 188 193 205 265 322 333 336 335 334 333 332 330 331 330 329 328 327 326 325 323 322 321 320 320 320 320 320 321 321 321 321 321 321 321 321 321 321 320 320 319 319 318 317 317 316 315 314 313 312 311 310 310 309 308 307 307 306 304 299 299 301 301 301 301 301 299 297 296 299 300 300 299 299 297 295 294 293 292 290
197 195 195 194 194 196 201 211 236 289 325 334 336 336 334 333 331 330 329 328 326 326 325 323 322 321 321 320 319 319 319 319 318 318 318 319 319 319 319 320 320 320 319 319 318 317 316 315 315 314 313 311 311 310 309 309 308 307 306 306 305 304 304 303 300 299 300 301 301 301 301 300 297 295 297 298 298 299 299 298 297 296 293 291 290
202 200 200 201 202 204 210 223 254 303 329 334 335 334 332 331 330 328 327 326 324 324 322 321 320 318 317 316 316 316 316 316 316 316 316 317 317 318 319 319 319 319 318 317 317 316 315 314 313 312 311 309 308 307 306 306 305 304 303 302 302 301 301 300 299 298 298 299 299 299 300 299 297 296 297 296 295 295 296 296 297 298 298 295 293
206 205 205 207 209 210 215 231 267 307 325 330 330 330 330 330 330 328 327 325 324 322 320 318 317 315 314 313 313 313 313 313 314 314 315 316 317 318 318 318 318 317 317 316 316 315 315 314 313 312 311 309 308 307 306 304 303 302 301 300 299 298 297 297 297 296 297 296 295 296 297 296 294 295 297 297 294 293 293 294 294 295 297 298 297
210 209 210 213 214 215 220 238 270 300 315 321 325 326 327 328 329 329 327 325 322 320 317 316 314 312 311 310 310 311 312 312 313 313 315 316 316 317 317 317 317 316 316 316 315 315 314 313 313 312 311 310 309 308 307 306 305 304 303 301 300 299 298 297 296 295 294 293 293 294 295 295 294 292 292 293 293 291 291 292 293 293 294 294 294
212 212 214 215 216 218 226 244 266 287 303 313 319 321 322 323 325 326 325 323 321 319 316 314 312 310 309 309 310 310 311 312 312 313 314 314 315 316 316 316 315 315 315 315 315 314 313 312 312 311 310 310 309 309 309 308 307 306 305 303 302 301 299 297 296 295 292 290 291 292 292 293 294 293 291 289 288 287 288 290 292 293 294 293 293
214 214 216 216 217 222 232 247 263 277 291 304 313 316 316 317 320 321 321 322 322 320 318 315 312 309 308 308 309 310 311 311 311 311 312 313 314 314 314 314 314 314 314 314 313 312 312 311 311 310 310 309 308 309 308 308 307 306 305 304 302 300 298 296 295 294 292 290 289 290 291 293 294 296 297 295 289 285 286 289 291 292 292 292 292
216 217 217 218 220 226 236 248 259 269 283 298 308 311 311 312 315 317 318 320 321 321 319 315 311 308 306 307 308 309 309 309 309 310 311 312 313 313 313 313 313 313 313 313 312 311 311 311 310 309 309 308 307 308 308 307 306 305 303 302 299 296 294 292 290 290 289 289 288 289 291 292 294 297 299 299 296 292 290 289 290 291 291 291 291
218 218 219 221 225 230 239 248 255 265 280 295 303 305 306 308 311 313 316 318 320 320 318 313 308 305 304 305 305 306 307 307 308 309 310 312 312 312 313 313 313 312 312 311 311 310 310 310 309 308 307 306 307 307 307 307 305 303 301 299 296 294 292 291 291 291 290 289 289 291 292 293 295 299 299 298 295 293 293 292 291 289 289 291 292
219 220 221 224 228 235 242 248 253 263 277 290 297 300 302 304 307 310 314 315 317 318 316 311 306 303 302 303 303 304 305 306 307 309 311 312 312 313 313 312 312 311 311 311 310 310 310 309 308 307 307 307 308 307 306 305 303 300 298 295 292 291 291 291 292 291 291 290 290 293 294 293 295 298 298 297 297 296 296 295 292 287 285 288 286
220 221 223 227 232 239 244 248 252 262 275 286 293 296 298 300 303 307 310 313 315 316 314 309 304 302 302 302 302 303 304 306 308 309 311 312 313 313 312 311 311 310 310 310 310 310 309 309 308 308 308 309 308 307 305 303 301 299 297 293 287 282 283 287 289 290 290 288 288 290 290 291 294 296 296 297 298 296 295 294 293 290 287 289 286
220 222 225 230 236 242 246 249 253 262 275 286 290 293 296 297 301 305 308 311 314 314 312 307 303 302 301 301 301 302 305 307 308 310 312 312 312 311 310 310 310 310 310 310 310 310 309 309 308 308 308 308 307 307 306 304 302 299 296 293 289 287 292 293 289 288 288 288 288 289 288 289 291 293 295 298 298 296 293 291 290 289 287 287 286
221 224 227 233 240 245 248 250 255 266 278 285 289 292 294 296 300 304 308 311 313 313 309 305 302 301 301 300 301 303 306 308 309 311 312 311 312 311 310 309 309 310 310 310 309 309 309 309 308 308 308 308 307 309 309 305 302 299 297 299 302 310 315 309 297 289 286 285 284 285 286 287 288 290 293 295 295 294 293 291 290 289 288 286 285
222 226 230 236 243 247 249 252 259 271 279 285 288 290 292 295 299 304 308 311 312 310 307 303 302 300 300 300 302 304 307 309 310 311 312 312 311 310 309 309 310 310 310 309 309 309 308 308 308 308 307 307 309 311 308 303 300 301 304 308 313 317 316 312 310 306 299 292 285 286 291 290 286 287 290 291 293 293 292 292 291 290 289 288 288
224 229 234 240 245 248 251 255 264 274 280 284 287 288 290 295 300 305 308 310 309 307 304 302 300 299 299 301 303 305 308 310 311 311 312 312 311 310 309 309 309 309 308 308 308 308 308 308 307 307 307 308 311 312 307 303 302 303 306 310 312 312 308 309 314 312 306 300 294 291 293 290 286 287 289 289 292 293 292 290 290 291 290 290 290
226 232 238 243 247 250 254 260 269 276 280 283 284 286 290 295 300 305 307 307 306 304 302 299 298 298 299 301 303 306 309 310 311 311 311 312 311 310 310 309 308 308 308 308 308 308 308 308 307 308 309 310 312 312 309 305 300 299 304 307 306 304 300 302 308 306 300 299 297 293 291 291 291 292 292 290 289 289 289 289 289 290 291 290 289
228 235 241 246 249 253 257 264 271 276 280 281 283 286 290 295 300 303 304 304 303 302 299 297 296 297 299 302 305 307 309 310 311 311 312 313 312 311 309 308 308 308 308 309 309 308 308 308 309 310 311 311 315 317 313 303 297 296 299 299 298 297 296 300 304 304 302 302 299 295 293 291 290 288 287 287 288 288 287 286 287 288 288 288 287
231 237 243 248 250 254 258 264 272 277 280 281 282 285 289 294 298 300 301 302 302 300 297 295 295 297 300 303 306 308 310 311 311 312 312 313 312 310 308 307 308 309 310 310 309 308 308 309 310 312 313 314 317 316 306 296 293 292 293 294 295 297 300 304 305 305 305 305 303 300 297 293 288 288 292 295 296 294 287 281 283 285 283 283 285
233 238 245 248 249 252 257 264 272 276 279 280 281 284 288 292 295 298 300 301 301 299 296 295 296 298 301 304 307 308 309 310 311 312 313 313 311 308 307 307 308 308 308 308 308 309 310 311 314 318 317 312 309 305 297 292 291 291 294 297 298 299 302 305 305 303 303 304 303 303 301 295 291 292 296 299 300 297 287 279 278 279 278 278 280
235 240 244 244 244 250 256 264 270 274 277 278 280 282 286 290 293 296 298 300 300 298 296 295 296 299 302 305 307 308 309 310 310 311 312 312 309 306 305 305 305 306 308 310 311 312 313 315 318 320 315 306 301 299 296 295 297 299 300 299 297 299 302 303 302 301 300 300 300 299 295 292 294 296 296 296 297 295 290 282 276 273 273 275 275
238 239 239 239 243 250 256 263 268 272 275 277 279 282 285 288 292 295 297 299 298 296 295 295 297 299 302 305 307 308 308 309 310 311 312 310 306 304 303 303 305 308 310 310 310 310 312 313 312 311 308 303 300 299 300 305 306 302 299 296 295 297 299 300 299 297 295 295 295 293 292 293 296 298 298 298 299 298 296 291 283 274 271 272 273
237 235 236 239 244 249 256 262 267 271 273 276 278 280 283 287 291 294 295 297 296 294 294 295 297 300 303 305 306 308 308 309 310 310 310 306 303 302 303 304 307 308 304 303 305 306 307 304 301 302 304 304 303 303 303 303 300 295 292 292 292 293 293 293 294 293 292 292 291 290 291 293 295 296 297 298 298 297 297 298 294 287 280 275 274
235 234 237 241 245 250 256 261 265 269 272 274 276 278 282 286 290 292 294 295 294 293 293 295 297 300 303 305 306 307 308 309 309 309 307 304 302 303 304 306 310 308 302 302 304 303 302 301 302 305 306 305 303 300 296 292 290 290 292 292 292 293 293 293 294 295 294 293 292 291 291 292 293 294 295 296 296 295 298 302 303 302 298 294 289
236 236 239 241 244 250 255 259 264 267 270 273 275 277 282 286 289 292 293 294 293 292 293 296 299 302 304 305 306 308 309 310 310 307 304 303 303 306 309 315 319 313 304 302 303 303 304 306 308 308 304 299 294 290 289 290 292 292 293 294 294 295 296 297 298 299 298 297 297 296 294 293 293 294 295 295 295 296 299 302 305 306 305 303 301
238 239 240 242 244 249 253 258 263 266 269 272 274 277 282 286 289 291 292 292 291 292 295 298 301 303 304 305 307 309 311 312 310 306 303 303 307 310 316 325 330 320 308 306 307 306 305 305 304 303 299 296 295 296 297 299 298 296 296 296 296 296 296 297 297 298 299 300 300 299 298 298 298 298 299 300 299 299 301 303 304 305 305 304 304
241 241 241 242 244 248 253 257 262 265 268 271 274 278 283 287 288 290 291 290 291 293 296 299 301 302 303 304 306 310 313 312 308 306 305 307 310 315 324 337 339 326 308 303 303 303 305 307 307 306 307 307 307 307 307 306 304 302 300 298 297 297 296 297 298 300 301 302 301 301 302 301 301 301 302 302 302 301 303 304 305 305 305 306 306
242 241 241 242 244 248 252 257 260 264 267 270 274 278 283 286 288 289 290 290 291 294 297 299 301 301 302 302 305 309 312 311 309 309 309 311 316 326 335 337 332 317 304 305 309 314 318 319 317 316 317 317 315 312 311 310 309 308 306 305 305 306 306 307 308 307 306 305 304 303 302 301 301 302 302 303 303 303 305 306 306 307 308 308 306
243 242 241 242 244 248 252 255 259 263 266 269 274 278 282 285 287 288 289 290 292 295 297 299 299 299 299 300 303 307 310 310 311 313 314 317 325 333 332 326 318 310 307 311 316 322 324 323 322 322 321 321 321 320 319 321 321 320 320 319 318 318 318 318 318 315 314 313 310 308 307 307 306 307 307 306 305 305 306 307 309 311 313 309 303
244 243 241 241 244 248 251 254 258 262 265 269 273 278 281 285 287 288 288 290 293 295 296 296 296 296 296 298 303 308 311 312 313 313 314 317 321 323 320 315 310 307 308 312 318 324 327 327 325 325 325 326 329 332 334 336 337 337 336 334 331 329 329 328 327 325 323 321 318 316 316 315 314 314 314 312 312 314 315 315 314 314 312 307 301
247 244 241 240 243 247 250 254 258 261 264 269 273 277 280 283 285 286 286 289 292 293 294 294 295 296 297 300 306 310 309 309 310 308 306 309 316 315 309 303 302 304 308 314 322 327 329 327 325 326 331 335 339 343 344 344 344 344 343 342 341 340 339 337 336 334 331 327 325 323 323 322 323 324 324 323 323 324 325 321 315 308 302 299 302
249 246 241 240 243 248 250 253 257 260 264 269 273 276 279 281 282 284 286 289 292 293 293 293 294 295 297 299 303 305 302 302 303 300 300 305 308 302 296 296 303 309 313 318 325 327 327 327 328 334 340 343 345 347 347 345 345 345 344 345 347 349 350 350 348 344 340 338 336 336 335 335 334 333 330 326 323 322 322 320 313 302 293 290 295
250 246 241 239 243 247 250 252 256 260 264 269 272 275 277 278 279 283 287 290 293 291 289 289 289 291 293 294 297 299 297 295 296 297 298 298 294 292 295 302 308 311 315 321 325 325 324 328 335 343 348 349 349 348 347 345 345 345 345 348 352 356 359 358 355 352 351 350 347 344 341 338 335 331 328 324 321 320 321 322 320 311 298 286 287
250 246 240 239 243 247 249 252 257 260 265 269 272 274 275 275 277 280 284 287 288 286 284 283 284 288 290 290 291 293 291 290 292 292 290 289 289 293 300 306 308 310 317 323 322 319 322 333 342 347 351 353 351 349 347 345 344 345 347 351 356 2 5 5 3 2 0 356 349 345 343 340 336 331 330 328 326 323 324 326 325 318 304 291 288
248 244 238 238 242 246 249 252 257 260 265 269 271 272 273 275 277 280 280 280 280 280 280 281 282 284 286 287 287 285 284 285 286 284 283 285 290 296 301 304 310 315 317 318 317 319 328 338 343 346 350 352 351 350 347 344 343 344 347 353 1 6 9 10 8 5 0 354 349 348 348 345 341 336 334 332 329 327 327 328 327 318 305 297 294
246 241 237 237 241 244 248 252 256 260 264 267 268 269 271 274 278 279 278 275 270 267 271 277 280 280 281 283 283 279 278 279 279 279 283 287 291 294 299 306 314 315 311 312 317 324 331 336 339 342 346 350 351 350 347 345 343 344 349 355 1 7 12 11 5 359 355 353 352 352 351 349 346 343 338 334 332 331 331 331 329 320 309 301 297
244 239 236 237 240 243 248 252 256 260 263 264 264 266 269 273 276 276 274 272 268 261 261 268 275 277 276 276 276 274 273 274 275 277 282 285 286 290 298 307 313 313 311 316 323 327 329 332 336 340 344 347 349 350 349 346 342 343 349 354 359 9 13 5 352 349 353 356 356 354 353 351 349 346 341 337 335 335 334 333 329 324 318 312 303
242 238 236 237 240 244 248 252 255 258 260 261 262 265 268 271 271 269 267 265 264 262 260 262 267 273 273 269 267 267 269 271 273 275 277 278 282 291 302 308 311 313 316 321 325 329 332 333 336 340 342 345 347 348 348 347 344 343 346 349 357 9 8 350 336 345 355 358 357 357 355 352 350 347 344 340 339 338 337 335 331 327 326 324 314
240 236 236 237 240 243 247 251 254 256 257 258 260 264 266 265 263 261 258 257 258 259 259 260 263 267 269 267 264 262 263 266 268 271 273 276 282 292 299 303 306 311 317 321 325 329 330 331 334 337 338 341 346 346 346 346 344 343 342 343 351 4 4 344 336 348 355 356 357 357 355 354 352 350 346 343 341 340 338 336 334 332 331 330 325
234 232 233 236 239 243 247 251 252 253 255 257 259 261 261 259 255 251 250 252 254 255 256 259 261 262 263 264 263 260 258 259 261 262 266 273 280 287 292 297 301 305 311 315 317 321 324 325 328 332 334 337 342 343 342 342 342 341 342 341 345 355 0 350 342 346 351 354 356 356 354 354 353 351 349 346 343 341 338 336 336 335 333 332 331
231 231 234 238 241 245 248 249 251 252 255 257 257 257 254 250 246 245 246 248 251 252 254 256 259 260 261 261 261 260 257 256 257 259 261 268 276 282 288 293 295 297 301 305 308 312 316 320 323 327 330 333 336 337 338 339 338 338 339 339 340 347 354 354 347 345 349 354 357 356 355 354 352 351 352 349 344 342 340 338 337 337 336 335 335
230 233 237 239 242 245 246 248 250 253 254 254 253 251 247 243 240 242 245 247 248 250 253 254 256 259 261 261 260 261 260 258 258 262 266 270 274 279 284 287 290 293 295 299 303 307 311 315 319 323 326 328 330 331 332 334 336 336 336 336 337 340 347 353 352 349 351 356 358 356 355 354 352 351 351 350 347 345 343 341 340 340 340 340 342
231 234 237 240 242 245 246 248 250 251 251 251 249 245 241 239 240 242 244 246 248 249 251 252 253 255 259 261 261 262 264 265 264 266 270 273 275 277 280 283 287 291 293 296 300 304 308 312 316 319 322 323 324 325 327 329 332 334 333 333 334 335 341 348 351 350 352 357 358 356 354 353 352 351 350 349 348 346 345 345 344 343 342 343 347
233 235 238 240 242 243 245 246 248 248 248 247 244 240 237 238 240 242 243 245 247 249 250 251 250 252 256 260 261 263 265 268 269 270 272 274 275 277 278 281 284 288 292 297 300 303 306 309 311 314 318 319 319 321 323 324 327 329 329 331 332 332 337 345 349 350 351 353 354 354 354 353 352 350 349 349 348 346 346 347 346 344 344 346 348
236 237 238 240 241 243 244 245 246 246 244 241 238 236 236 238 240 242 243 245 247 250 251 250 250 250 252 256 259 262 264 266 268 270 272 273 275 277 278 280 284 287 291 295 298 300 303 305 306 308 311 312 313 315 317 319 322 323 324 327 329 329 331 338 345 348 348 347 347 348 350 351 351 349 348 347 347 346 346 347 347 345 344 345 345
239 239 240 242 243 244 245 245 245 243 240 238 236 236 237 239 240 241 243 245 247 250 251 251 251 251 251 252 255 258 261 264 266 268 271 273 274 277 278 280 283 286 289 292 295 297 299 301 302 303 304 305 306 309 311 313 315 317 318 321 325 325 324 327 333 339 343 344 343 343 345 347 348 348 347 345 345 345 345 345 346 344 343 342 342
240 240 242 243 244 244 243 242 241 240 238 237 237 237 238 240 242 243 244 246 248 250 252 252 253 253 252 252 253 255 258 262 264 266 269 272 274 276 278 280 282 285 287 290 292 294 296 297 298 299 301 302 302 303 305 306 309 311 311 314 318 320 318 318 320 327 336 342 342 340 339 341 343 345 346 344 343 342 343 345 345 345 343 342 341
241 243 244 244 244 243 242 239 238 238 238 238 239 240 241 242 244 245 246 247 249 250 252 253 255 256 256 256 256 256 257 260 262 264 267 270 272 275 277 279 282 284 286 288 290 291 293 294 295 296 298 299 300 300 301 302 303 305 306 308 311 315 316 315 316 323 333 340 341 338 336 336 338 342 344 343 341 340 342 344 347 347 346 344 343
246 246 246 246 244 242 241 239 239 239 240 241 242 242 243 245 246 247 249 250 250 252 254 254 256 258 258 259 260 260 260 261 263 264 266 268 270 273 275 278 281 283 284 286 288 289 290 291 293 294 295 297 298 299 299 299 300 300 301 303 305 309 312 314 316 322 331 334 336 338 336 334 336 339 341 341 340 340 340 343 346 348 349 349 348
245 245 244 243 242 241 240 240 240 241 243 244 244 244 245 247 248 249 251 252 253 255 256 257 258 259 261 262 263 263 264 264 265 266 268 269 271 273 275 278 280 282 285 286 287 288 288 289 291 293 294 296 297 298 298 299 298 298 299 300 301 303 306 310 311 315 320 323 329 336 337 333 333 337 339 339 339 340 341 341 344 346 348 351 352
245 244 243 242 241 240 240 241 243 245 246 247 248 248 249 250 251 251 253 254 256 257 259 261 261 261 262 263 265 266 267 268 269 270 271 272 274 275 277 278 280 282 285 286 288 288 289 290 291 293 294 295 296 297 297 298 299 298 298 299 299 299 301 303 304 304 304 311 321 331 334 330 331 336 338 338 339 342 344 344 344 344 345 348 351
245 244 244 243 242 242 243 245 246 248 249 250 251 251 251 252 253 254 255 256 258 259 261 263 263 264 265 266 267 268 269 271 272 273 274 275 276 277 278 280 282 283 284 286 288 289 289 291 292 293 294 294 295 296 297 297 298 298 298 298 299 299 299 301 303 299 292 300 318 328 328 325 329 334 336 336 339 344 347 348 348 346 344 345 347